Regional Weather Roundup
Issued by NWS

Home | Current Version | Previous Version | Graphics & Text | Print | Product List | Glossary On
Versions: 1 2 3 4 5 6 7 8 9 10 11 12 13 14 15 16 17 18 19 20 21 22 23 24 25 26 27 28 29 30 31 32 33 34 35 36 37 38 39 40 41 42 43 44 45 46 47 48 49 50
000
ASUS43 KDMX 260804
RWRIA

WEATHER ROUNDUP FOR IOWA
NATIONAL WEATHER SERVICE DES MOINES IA
  ISSUED BY NWS QUAD CITIES IA IL
200 AM CST MON JAN 26 2015

NOTE: "FAIR" INDICATES FEW OR NO CLOUDS BELOW 12,000 FEET WITH NO
SIGNIFICANT WEATHER AND/OR OBSTRUCTIONS TO VISIBILITY.

* - THESE STATIONS ARE NOT NWS STATIONS...THUS NOT UNDER NWS
QUALITY CONTROL.  THEY ALSO DO NOT REPORT WEATHER SUCH
AS PRECIPITATION OR FOG.

IAZ001>003-012>014-020>022-031>034-043>046-260900-
   NORTHWEST IOWA

CITY           SKY/WX    TMP DP  RH WIND       PRES   REMARKS
CARROLL *      CLOUDY    32  30  93 S9        29.99S WCI  24
CHEROKEE *     MOSUNNY   30  30 100 S7        29.95F WCI  23
DENNISON *     CLOUDY    30  32 100 SW7       29.98R WCI  23
LE MARS *      PTCLDY    32  32 100 S10       29.93F WCI  24
ORANGE CITY *  MOCLDY    32  30  93 SW12      29.91F WCI  23
SIOUX CITY     PTCLDY    32  29  88 S9        29.96F WCI  24
SPENCER        PTCLDY    32  29  88 S13       29.90F WCI  22
$$

IAZ055>058-069>071-079>083-090>094-260900-
   SOUTHWEST IOWA

CITY           SKY/WX    TMP DP  RH WIND       PRES   REMARKS
ATLANTIC *     CLOUDY    28  28 100 SW8       30.01S WCI  20
AUDUBON *      MOCLDY    30  27  86 SW5       30.01F WCI  25
CLARINDA *     PTCLDY    25  25 100 S5        30.07S FOG     WCI  19
COUNCIL BLFS * CLEAR     30  30 100 SW10      30.00F WCI  21
CRESTON *      CLOUDY    30  28  93 SW7       30.03S WCI  23
HARLAN *       PTCLDY    28  28 100 S8        30.04S WCI  20
LAMONI         CLOUDY    30  26  85 SW3       30.04S
$$

IAZ047>049-059>061-072>074-084-260900-
   CENTRAL IOWA

CITY           SKY/WX    TMP DP  RH WIND       PRES   REMARKS
AMES           CLOUDY    30  25  81 SW5       30.01F WCI  25
ANKENY *       CLOUDY    30  27  86 CALM      30.02S
BOONE *        CLOUDY    30  27  86 SW5       29.99F WCI  25
CHARITON *     CLOUDY    30  27  86 S3        30.03S
DES MOINES     CLOUDY    32  24  72 SW6       30.03S WCI  26
GRINNELL *     CLOUDY    29  27  90 S5        30.02F WCI  24
KNOXVILLE *    CLOUDY    30  25  80 S6        30.01F WCI  24
MARSHALLTOWN   CLOUDY    27  23  85 W3        30.00F
PELLA *        CLOUDY    31  25  80 W3        30.04F
PERRY *          N/A     32  29  91 SW3       30.02R
$$

IAZ004>006-015-016-023>025-035-036-260900-
   NORTH CENTRAL IOWA

CITY           SKY/WX    TMP DP  RH WIND       PRES   REMARKS
ALGONA *       CLOUDY    30  28  93 S14G21    29.93F WCI  20
CLARION *      CLOUDY    28  28 100 SW10      29.98F WCI  19
ESTHERVILLE    CLOUDY    30  29  96 S14       29.90F WCI  19
FORT DODGE *   CLOUDY    28  25  86 SW7       30.00F WCI  21
MASON CITY     CLOUDY    27  23  85 S8        29.96F WCI  19
WEBSTER CITY * CLOUDY    30  30 100 SW8       29.98S WCI  23
IOWA FALLS *   CLOUDY    28  25  88 S5        29.99F WCI  22
$$

IAZ007>011-017>019-026>030-037>042-050>054-066-260900-
   NORTHEAST IOWA

CITY           SKY/WX    TMP DP  RH WIND       PRES   REMARKS
CEDAR RAPIDS   CLOUDY    21  16  81 SE6       30.02F WCI  13
CHARLES CITY * CLOUDY    27  23  86 S5        29.97F WCI  21
CLINTON *      CLEAR     10   7  85 N6        30.06F WCI   1
DECORAH *      CLOUDY    23  16  74 S10       29.97F WCI  12
DUBUQUE        CLEAR      8   4  83 CALM      30.01F
OELWEIN *      CLOUDY    23  18  80 S8        30.00F WCI  14
WATERLOO       CLOUDY    25  22  88 S8        29.99F WCI  16
$$

IAZ064-065-067-068-078-260900-
   EAST CENTRAL IOWA

CITY           SKY/WX    TMP DP  RH WIND       PRES   REMARKS
DAVENPORT      PTCLDY    11   6  81 CALM      30.04F
IOWA CITY      CLOUDY    22  15  75 CALM      30.06F
MT. PLEASANT * CLOUDY    23  17  78 CALM      30.06F
MUSCATINE *    CLOUDY    19  16  86 CALM      30.08F
QUAD CITIES    MOCLDY    18  11  74 CALM      30.05F
$$

IAZ062-063-075>077-085>089-095>099-260900-
   SOUTHEAST IOWA

CITY           SKY/WX    TMP DP  RH WIND       PRES   REMARKS
BURLINGTON     MOCLDY    22  17  81 N5        30.07R WCI  16
FAIRFIELD *    CLOUDY    27  19  74 CALM      30.05F
FORT MADISON * CLOUDY    27  21  80 N5        30.08R WCI  21
KEOKUK *       CLOUDY    27  21  80 N5        30.07R WCI  21
OTTUMWA        CLOUDY    29  26  89 S3        30.04S
WASHINGTON *   CLOUDY    23  19  86 CALM      30.05F
$$

ABBREVIATIONS USED IN REMARKS
   TC - TEMPERATURES IN CELSIUS
  WCI - WIND CHILL INDEX
   HX - HEAT INDEX
  VSB - VISIBILITY
$$


USA.gov is the U.S. government's official web portal to all federal, state and local government web resources and services.